Tracking 18980 objects as of 22-Feb-2018
HD Live streaming from Space Station
objects crossing your sky now

S80/T

Track S80/T now!
10-day predictions
S80/T is classified as:


NORAD ID: 22078
Int'l Code: 1992-052C
Perigee: 1,308.4 km
Apogee: 1,334.5 km
Inclination: 66.1 °
Period: 111.9 minutes
Semi major axis: 7692 km
RCS: 0.3013 m2 (medium)
Launch date: August 10, 1992
Source: France (FR)
Launch site: FRENCH GUIANA (FRGUI)
aabbcc
Your satellite tracking list
Your tracking list is empty




NASA's NSSDC Master Catalog

Two Line Element Set (TLE):
1 22078U 92052C   18051.65875990 -.00000039  00000-0  92490-4 0  9992
2 22078  66.0854 156.3432 0016949 263.4158  96.4931 12.86788920199655
Source of the keplerian elements: AFSPC